Wind_Speed
19 21 25 26 24 23 21 20 19 19 18 17 17 16 17 17 18 19 19 19 19 19 18 17 17 16 15 15 16 17 17 17 16 16 16 14 14 14 14 12 11 10 10 11 9 9 9 9 9 8 9 9 9 10 11 11 12 13 12 12 12 11 12 13 13 14 14 14 15 15 15 15 15 14 14 14 14 14 12 12 12 13 14 14 15
22 23 24 26 25 23 22 21 20 19 18 18 17 16 16 17 18 18 18 18 18 19 19 17 17 17 15 15 16 16 16 16 16 15 15 15 13 13 13 12 10 9 10 9 9 8 8 9 9 9 9 9 9 10 11 10 11 11 11 11 10 10 11 12 12 12 13 13 14 14 14 14 14 13 13 13 12 12 12 11 11 13 14 13 14
24 23 24 27 25 23 22 21 21 20 19 18 17 16 16 16 17 17 17 17 17 19 19 18 17 17 15 15 15 16 16 16 16 15 14 14 13 12 12 11 10 9 9 8 8 7 9 9 9 10 9 9 9 9 9 9 10 9 9 8 9 10 10 11 11 11 11 12 13 14 14 14 14 13 12 12 11 11 13 14 12 13 13 13 14
25 24 25 27 24 23 22 22 21 20 19 18 17 16 15 15 15 15 16 16 17 18 18 18 17 17 15 14 15 16 16 15 14 14 13 13 12 12 11 11 10 9 8 8 8 8 9 9 9 9 9 9 9 9 8 8 9 9 9 8 9 10 10 10 10 10 10 11 14 15 14 13 12 11 11 12 11 11 14 14 13 13 13 13 13
25 24 26 27 24 23 22 22 21 20 20 18 17 16 15 14 14 15 15 16 17 17 18 18 17 16 15 14 15 16 15 15 14 13 13 12 12 11 11 11 9 9 8 8 8 8 8 8 8 8 8 8 8 8 7 8 8 7 8 8 8 10 10 8 9 11 11 11 11 10 10 11 11 11 11 12 13 13 13 14 13 13 12 13 13
24 24 25 25 23 24 23 22 21 21 20 19 18 17 16 14 14 15 16 16 17 17 18 18 17 15 14 15 16 16 15 15 14 13 12 12 11 10 10 9 9 8 8 8 7 7 7 6 7 7 7 8 8 8 7 7 7 6 7 7 7 9 8 7 9 11 10 10 9 6 7 10 10 10 10 11 13 13 13 13 13 12 12 12 13
24 24 24 23 23 25 24 23 22 21 21 20 19 18 17 15 15 15 16 17 17 17 18 17 16 15 15 16 16 16 15 14 13 12 12 11 10 10 9 8 8 8 8 8 7 6 6 6 6 6 7 8 8 8 7 6 5 6 6 6 7 7 5 6 8 8 7 6 5 5 6 7 9 10 9 11 12 12 12 12 12 11 11 11 12
23 23 23 22 23 25 24 23 23 22 21 21 20 19 18 17 16 16 16 17 17 17 17 17 15 16 16 16 16 16 14 13 12 12 11 11 10 9 8 8 8 8 8 7 7 6 6 6 6 7 7 7 8 7 7 5 4 6 6 5 5 4 3 4 7 8 10 6 2 5 6 7 9 9 8 10 11 11 11 11 11 11 10 11 11
21 21 22 21 24 26 24 24 23 22 22 21 20 19 18 17 16 16 17 16 17 17 17 16 16 16 16 16 15 15 14 13 12 11 11 10 9 8 8 8 8 9 8 7 7 7 7 7 6 7 7 7 7 6 7 5 4 5 5 4 4 3 1 3 6 8 8 5 4 5 6 6 8 9 9 10 10 10 9 10 11 10 9 10 10
20 20 21 21 25 26 23 24 23 23 22 22 20 19 18 17 17 16 16 16 16 17 17 17 17 16 16 15 15 14 13 13 12 11 10 9 9 8 7 7 8 9 9 8 8 8 7 7 7 7 7 7 7 6 5 5 4 4 5 4 3 2 0 4 7 7 5 3 4 5 6 6 9 10 9 8 8 8 8 10 11 10 10 10 11
19 20 20 21 26 25 23 24 23 23 22 22 21 19 19 18 17 17 16 16 16 17 17 17 16 15 15 15 14 14 13 12 11 10 9 8 8 7 6 6 7 9 10 8 9 9 8 8 8 8 8 8 7 5 5 4 4 3 3 2 0 1 1 5 5 3 2 4 5 6 6 8 11 10 8 8 9 9 10 10 10 10 10 10 11
18 19 20 22 25 25 24 22 22 22 22 21 20 20 19 18 18 17 16 16 17 17 16 16 15 15 14 14 13 13 12 11 10 10 9 8 8 7 5 5 6 8 9 8 8 9 8 8 8 8 7 7 7 6 5 4 4 2 1 1 1 0 4 4 1 2 2 5 6 6 5 8 11 9 7 9 10 10 10 10 10 10 10 10 11
19 19 20 22 24 25 23 22 22 22 22 21 20 19 18 19 18 17 17 16 16 16 15 15 14 14 13 13 12 11 11 11 10 10 9 7 7 7 5 5 6 7 8 7 8 8 8 8 7 7 7 7 7 6 6 6 5 3 2 2 1 3 7 5 4 1 3 4 5 5 5 7 9 8 8 9 9 10 10 10 9 10 10 10 11
21 20 20 22 24 24 23 22 22 21 21 20 19 19 18 18 18 17 17 16 16 15 15 14 13 13 12 12 11 10 10 10 10 10 9 8 7 6 5 5 5 6 7 7 8 8 8 8 7 7 8 7 7 7 7 6 6 5 4 3 3 7 8 5 5 2 3 4 4 4 6 8 8 8 8 8 9 9 9 9 9 10 10 10 11
20 21 21 21 23 23 22 22 22 22 21 21 19 18 17 17 17 17 17 17 16 15 15 14 14 12 12 11 11 10 10 10 10 9 8 8 7 6 6 6 5 6 6 7 9 8 8 8 7 7 7 7 7 8 7 5 7 7 5 4 4 7 5 1 2 2 4 3 4 4 8 8 5 7 7 8 9 9 9 9 9 10 10 10 10
18 21 21 20 22 23 22 21 21 21 21 21 20 19 18 17 17 17 17 16 15 15 14 14 13 12 12 11 11 11 10 11 10 9 9 8 6 7 7 7 6 6 7 8 9 8 8 8 8 7 6 7 8 8 5 4 7 7 6 4 4 4 3 1 1 2 3 3 4 3 7 6 4 7 8 8 8 9 9 9 9 9 10 10 10
17 19 21 20 19 20 21 20 20 20 20 20 20 19 18 17 17 17 17 16 15 14 13 13 12 12 11 11 10 10 11 11 11 9 9 8 7 7 8 7 6 6 8 8 8 7 8 8 8 7 6 7 7 5 4 4 6 7 6 5 4 3 4 3 2 2 3 4 3 3 8 7 7 9 7 7 8 8 8 8 9 9 9 9 9
17 17 19 21 19 18 19 20 20 19 19 19 19 20 19 19 18 17 17 17 16 14 13 12 11 11 11 11 10 10 11 11 11 10 9 9 8 7 7 7 7 7 8 8 7 8 8 8 8 8 6 6 5 3 4 4 5 6 6 5 4 4 6 5 3 3 3 3 2 4 8 6 7 8 6 7 7 8 8 8 8 8 8 8 8
15 16 17 20 19 18 18 19 20 18 18 19 20 20 19 19 18 18 17 17 17 15 14 13 12 12 12 11 11 11 11 11 11 11 10 10 9 8 7 7 6 6 7 7 7 7 8 9 9 9 7 6 4 3 3 3 4 6 6 5 4 6 7 6 2 3 4 3 3 5 6 4 6 7 6 6 6 8 8 7 8 7 7 7 8
14 14 15 18 18 16 17 17 18 18 18 20 21 20 19 19 19 18 18 17 17 16 14 13 13 12 12 12 11 11 10 10 11 11 10 10 10 9 8 7 6 6 6 6 6 6 8 9 10 10 8 6 5 4 3 2 2 4 6 5 4 5 4 3 1 2 3 3 5 4 3 4 7 6 6 6 6 7 7 7 7 7 7 7 7
13 12 13 17 17 15 15 15 17 17 16 17 18 17 18 20 20 19 18 18 17 16 15 14 14 13 14 13 11 11 9 9 10 10 10 10 10 10 9 8 6 6 5 5 5 6 7 9 10 10 9 7 6 6 5 3 2 3 4 4 3 4 2 1 1 2 2 3 5 2 1 5 8 6 6 6 7 6 6 7 7 6 6 6 7
13 12 11 14 17 16 15 15 15 15 14 13 13 14 17 18 18 18 18 19 18 16 15 14 14 13 14 13 11 11 9 9 9 9 10 10 11 10 10 9 7 6 5 5 5 6 8 9 10 10 10 7 6 7 7 5 3 2 2 3 3 4 4 3 3 3 3 4 5 1 1 7 8 6 7 6 6 5 6 6 6 6 6 6 6
12 12 11 12 13 15 16 16 15 16 15 14 14 14 16 17 16 17 16 18 19 17 15 14 14 12 13 14 12 13 11 9 10 9 9 10 10 10 11 9 8 8 6 6 6 6 8 9 10 10 9 7 6 9 9 7 5 3 2 3 3 5 4 4 4 4 3 5 3 2 1 9 9 7 7 6 5 5 6 6 6 6 6 6 6
13 11 11 10 10 12 14 16 16 16 16 15 14 14 16 16 15 15 13 16 18 17 16 13 14 12 13 15 14 13 12 11 12 11 10 10 9 10 11 9 8 8 7 6 7 8 8 8 10 11 10 8 8 10 9 8 7 5 5 5 4 5 5 5 5 4 4 7 4 2 3 10 10 7 7 6 5 5 6 5 6 7 6 6 6
13 11 11 10 9 9 10 14 16 14 13 13 12 14 16 16 15 13 11 14 16 16 17 16 15 14 13 15 14 12 10 10 11 11 10 10 9 8 9 10 9 9 7 7 8 8 9 9 10 11 11 10 9 9 7 6 6 6 6 6 5 5 5 6 5 4 5 7 4 1 4 11 10 7 6 6 6 6 6 4 6 7 8 7 6
12 11 11 10 9 9 9 11 14 14 12 11 12 12 13 15 15 13 10 12 13 13 16 17 16 15 14 15 15 13 12 11 10 11 10 8 8 7 8 10 10 9 7 7 8 8 9 9 11 11 11 10 9 8 6 5 5 6 7 6 5 5 6 6 5 5 5 5 3 1 3 9 10 7 6 6 5 6 6 5 5 6 8 8 6
11 10 10 10 9 9 8 8 10 11 11 12 15 13 14 16 12 11 11 11 13 14 16 17 16 15 15 17 16 14 14 12 10 10 8 7 7 7 8 9 9 8 6 6 7 7 7 8 9 10 10 10 10 9 8 7 7 7 7 7 6 5 5 6 6 5 5 5 4 1 3 7 9 8 6 5 5 6 7 6 5 4 7 7 6
11 10 10 9 9 8 8 7 6 7 6 8 13 12 14 19 15 13 14 12 14 16 18 18 16 15 15 17 13 10 11 9 8 6 5 6 5 3 4 5 6 4 5 5 6 5 5 6 6 7 7 8 9 9 9 8 8 7 6 7 6 5 5 5 5 5 5 6 5 2 2 5 8 9 7 6 5 6 7 6 6 4 5 7 7
12 11 10 9 9 8 7 7 6 5 5 3 5 6 8 13 14 14 15 14 15 15 14 14 14 14 14 13 10 9 8 7 5 5 5 4 3 1 2 2 3 3 4 4 4 4 4 4 5 6 6 6 8 8 9 8 7 7 6 7 7 7 6 5 5 5 6 6 6 5 3 4 7 9 8 7 6 5 6 7 6 4 3 6 6
13 12 10 9 9 9 7 7 6 4 5 3 2 2 2 5 8 10 10 12 12 11 10 11 12 14 13 12 10 8 6 5 5 4 4 3 2 1 2 3 4 3 4 4 4 3 3 4 5 6 5 5 7 8 9 8 8 8 8 8 8 7 6 6 7 7 7 6 7 7 3 3 6 7 8 9 7 6 6 6 7 5 4 5 5
14 13 11 10 9 9 8 7 6 4 3 4 2 0 1 3 4 5 5 6 7 7 8 9 9 10 10 10 9 7 5 4 6 4 3 2 2 1 3 5 6 5 4 4 4 2 2 4 5 6 5 6 7 8 9 9 8 9 9 9 8 8 8 7 8 8 8 7 8 8 6 5 6 7 8 9 10 8 7 7 7 6 5 6 6
15 14 11 11 10 8 9 8 7 5 1 2 3 0 1 2 2 3 3 3 4 5 6 6 5 5 6 6 6 6 5 4 6 5 4 3 2 2 4 6 7 8 6 5 4 2 3 3 3 5 4 6 7 7 7 7 7 9 9 9 9 9 9 8 9 9 9 8 8 9 8 7 7 7 8 9 10 10 9 8 7 7 6 6 6
15 14 13 14 11 9 10 8 8 6 2 2 2 1 0 1 2 2 3 3 3 4 4 3 3 4 4 4 4 4 4 3 5 4 5 4 2 3 6 6 7 9 9 7 5 4 4 3 3 5 5 6 7 7 7 7 7 7 7 7 8 9 9 9 10 10 10 9 9 9 9 9 8 9 9 9 10 10 11 10 9 8 8 7 6
16 15 15 15 12 11 10 8 8 6 4 2 2 1 1 1 1 2 2 2 2 3 3 2 2 4 5 4 4 4 2 2 2 4 4 3 2 5 6 6 7 9 10 9 7 6 5 5 6 6 7 7 7 7 6 5 5 4 4 5 6 8 10 10 10 11 10 9 9 9 9 9 10 11 11 10 10 11 11 11 11 10 9 9 7
17 17 17 16 13 12 10 8 7 6 5 4 3 3 2 1 1 2 2 2 2 2 3 3 4 4 4 5 5 3 2 2 1 3 3 3 4 7 7 6 7 8 10 10 8 7 7 7 8 8 8 8 7 6 4 3 4 3 3 3 4 7 9 10 11 11 10 10 10 9 9 9 10 11 12 13 12 12 12 11 12 11 11 10 8
18 18 17 16 14 12 11 9 8 6 6 5 4 4 3 3 2 3 2 2 2 1 1 2 3 4 2 4 6 4 3 2 2 2 3 4 6 7 6 5 5 8 10 11 9 9 8 8 7 8 10 8 7 7 5 3 4 4 3 3 4 7 8 9 11 11 11 11 11 10 9 9 9 10 11 13 14 13 13 12 12 12 12 12 10
18 17 17 16 14 13 11 10 9 7 7 6 5 5 4 4 3 3 2 3 3 1 2 2 2 2 1 4 6 4 4 3 3 3 4 6 6 6 5 5 5 8 10 10 10 9 9 9 8 8 9 9 8 9 7 5 4 4 4 4 5 7 8 9 10 11 12 13 12 11 11 10 10 10 10 11 13 14 14 13 13 13 13 13 11
18 17 17 16 14 13 11 10 9 8 8 7 6 5 5 4 4 4 3 3 3 2 2 2 3 3 3 5 5 4 4 4 4 4 5 5 5 5 5 5 7 8 9 9 10 10 9 9 9 9 9 9 10 11 8 5 4 4 5 5 7 8 9 9 9 10 12 13 13 12 11 11 10 10 10 10 11 12 14 14 13 13 14 14 13
18 17 17 16 14 14 12 11 10 9 9 8 7 6 5 4 4 4 4 3 4 3 3 3 3 3 4 4 3 3 3 3 3 3 3 4 4 5 6 6 7 8 9 10 10 10 10 9 8 9 10 9 9 6 6 5 4 4 4 6 8 9 9 8 10 11 11 12 13 12 12 10 10 10 10 11 10 10 12 13 13 15 16 16 16
17 17 17 16 14 14 13 12 11 10 9 8 8 7 6 5 4 5 5 4 4 4 4 4 4 4 4 3 3 3 2 2 2 2 3 4 4 5 6 6 7 9 10 11 12 11 10 9 8 8 9 10 9 3 4 5 4 4 5 6 7 7 7 7 9 9 10 11 12 12 11 10 9 10 10 11 11 10 11 12 13 15 17 17 16
17 18 17 17 15 14 14 13 12 11 9 8 7 6 6 6 5 5 5 5 4 4 5 5 5 5 4 4 4 3 2 2 1 1 2 4 4 5 5 5 7 8 9 10 12 13 11 9 9 11 11 11 10 6 4 5 3 2 4 4 5 6 5 7 9 9 9 11 12 13 13 10 10 11 11 11 12 12 11 12 12 13 15 16 17
18 19 18 17 15 14 14 13 13 11 9 7 6 5 5 5 5 5 5 5 5 5 6 6 6 5 5 5 4 4 3 3 2 1 0 3 4 4 4 4 5 5 5 6 9 11 11 9 10 13 13 11 10 8 6 4 2 1 2 3 4 4 4 7 10 9 10 10 11 15 14 10 11 11 11 12 12 12 13 12 12 12 12 13 15
18 19 18 18 16 15 14 13 13 12 10 7 6 6 5 5 5 5 5 6 6 7 8 7 6 6 6 6 5 5 4 3 3 2 1 0 1 2 3 3 4 3 3 4 6 8 8 7 8 9 9 10 10 8 7 4 3 3 2 2 1 2 3 4 7 8 9 10 11 15 13 9 10 11 11 12 12 12 13 13 13 13 12 11 11
18 18 19 19 17 16 15 15 14 13 11 9 7 6 7 7 7 7 7 8 8 8 8 8 7 7 7 6 6 6 5 4 3 2 2 2 1 0 0 1 1 2 3 3 3 3 4 4 3 4 5 7 6 4 3 4 5 5 2 1 0 1 1 1 3 4 6 8 9 11 11 8 8 9 9 11 13 12 13 14 14 13 13 12 11
18 19 20 19 18 18 17 16 15 14 13 11 9 8 9 9 9 9 8 9 9 8 8 7 6 6 7 7 6 6 5 5 4 4 4 4 2 2 1 2 2 1 0 0 0 1 1 1 1 1 1 2 2 1 3 4 6 6 4 2 1 0 1 2 2 2 3 6 7 7 8 8 8 7 7 9 11 12 11 12 14 14 13 13 13
19 20 20 20 19 19 18 17 16 15 15 14 11 10 10 10 11 10 9 9 8 8 7 7 6 6 7 6 6 6 6 6 6 5 5 5 4 3 2 3 4 4 3 1 2 3 2 2 4 4 3 3 3 2 5 5 4 6 7 4 1 1 1 3 3 2 3 5 7 7 7 8 8 8 8 8 11 14 13 12 12 12 13 12 12
20 20 20 21 20 20 20 19 17 17 17 16 14 12 11 11 11 10 10 9 9 8 8 8 7 7 7 7 7 7 6 7 6 6 6 6 5 4 4 4 4 4 3 3 3 4 4 5 6 6 5 6 5 3 5 4 3 2 4 5 4 3 3 2 2 2 3 3 6 6 5 5 6 7 8 9 11 13 12 12 15 14 10 9 10
20 21 21 22 22 21 21 19 18 18 18 18 16 14 13 12 12 11 10 10 9 10 10 9 8 8 8 7 7 7 7 7 6 7 6 6 6 5 5 5 4 4 4 4 5 5 6 7 7 7 6 7 7 5 5 5 4 4 3 2 3 3 4 4 5 4 4 3 3 4 4 5 6 8 8 8 10 11 11 12 13 15 14 10 10
21 22 22 23 23 22 21 20 19 18 19 20 18 15 13 14 13 11 11 10 11 11 10 10 9 9 9 8 8 7 7 7 7 7 7 7 7 6 6 6 6 6 5 6 6 6 7 7 7 7 7 7 7 7 6 5 5 4 3 3 2 3 4 3 5 6 5 4 3 2 3 4 6 7 7 8 10 11 12 13 12 13 15 14 13
21 22 22 23 24 24 22 21 19 18 20 21 20 17 15 14 14 13 12 12 12 12 11 11 10 9 9 8 8 8 8 8 8 8 8 8 7 7 7 6 7 7 7 7 6 6 6 7 7 7 7 7 7 8 7 7 6 5 4 3 1 1 2 2 3 4 4 4 4 3 4 4 4 5 6 8 10 9 10 12 12 13 16 15 15
21 21 22 23 25 25 25 24 21 19 20 21 21 18 16 15 14 14 14 13 13 13 12 11 10 10 9 9 8 8 8 8 8 8 8 7 7 7 7 7 6 6 7 6 6 6 6 6 7 7 8 8 8 8 8 8 7 6 6 5 5 5 3 2 2 3 4 4 4 4 5 6 6 6 7 7 8 9 11 12 12 14 16 16 15
Wind_Direction
135 133 141 148 144 151 151 150 147 142 144 143 148 152 158 163 166 168 168 165 164 162 157 158 157 153 144 143 147 142 135 134 135 138 144 145 146 148 150 149 146 140 133 125 115 112 106 101 96 90 81 76 75 78 85 86 89 92 97 99 99 103 97 94 95 97 96 96 96 96 96 96 96 94 91 88 87 82 78 82 81 75 76 79 79
134 133 141 147 146 151 151 151 147 144 145 144 148 152 158 163 166 169 169 168 166 164 159 161 160 154 146 142 148 146 136 133 133 138 144 145 146 147 151 151 146 139 131 128 123 119 112 107 103 98 90 86 82 83 91 93 99 104 110 108 107 106 98 99 100 100 100 101 102 101 98 95 95 93 89 87 85 81 76 83 87 80 80 81 81
132 132 140 146 147 151 151 151 148 147 145 144 148 151 156 161 166 169 169 169 166 165 161 162 162 156 148 141 145 148 140 135 134 138 143 143 144 145 146 143 137 133 130 131 130 125 117 112 107 101 96 92 89 88 92 96 102 106 113 114 118 111 98 101 102 104 105 104 102 102 99 93 91 92 89 90 91 92 90 90 89 85 85 84 82
130 132 140 145 147 151 152 152 150 148 145 145 147 147 151 157 164 167 168 167 165 164 161 162 163 157 149 141 142 148 145 139 137 138 142 144 146 147 146 143 138 138 139 138 135 123 114 113 109 102 99 96 95 97 97 99 104 104 109 107 111 113 102 106 114 113 109 102 95 93 96 93 88 87 89 91 92 96 97 94 86 85 88 85 82
127 132 140 143 149 153 153 152 152 149 147 146 145 145 147 152 160 163 165 164 164 163 162 163 163 156 146 141 142 147 145 140 139 141 143 146 149 150 148 145 142 144 142 137 130 117 114 117 113 107 105 102 102 103 101 109 114 107 110 108 110 120 115 115 123 111 100 96 94 92 94 95 92 85 85 86 86 90 93 90 87 85 86 86 82
128 134 138 142 149 154 154 154 153 150 148 146 145 144 145 150 156 160 161 162 163 163 164 163 160 154 145 141 142 144 143 141 142 143 144 145 147 146 142 139 137 138 135 134 129 123 125 127 118 114 112 109 111 110 104 113 122 117 118 120 118 130 131 123 118 105 96 92 90 95 99 95 93 88 84 86 87 90 89 86 88 82 77 82 81
131 136 139 141 148 156 156 154 154 152 150 148 146 145 147 151 156 159 160 161 162 164 164 162 159 153 147 142 142 145 145 144 144 144 142 138 136 134 133 130 129 131 133 135 135 136 136 132 126 123 120 115 116 111 104 107 127 138 130 126 124 132 137 124 111 88 75 84 95 106 104 97 95 93 90 90 91 93 91 88 90 84 78 81 81
132 136 140 141 149 157 155 155 156 154 152 149 148 147 150 151 156 159 158 160 161 164 162 161 157 151 148 145 146 148 147 145 143 141 137 132 128 127 128 126 125 127 131 134 136 141 141 137 134 131 126 120 121 112 107 103 121 145 141 135 142 145 123 119 113 75 55 46 96 118 100 100 100 98 95 94 93 92 89 90 92 87 86 83 81
132 135 140 143 151 157 155 157 157 156 154 151 149 149 151 151 155 157 157 158 159 162 161 158 154 150 149 148 150 149 145 143 141 138 135 133 131 128 129 128 129 130 130 136 143 144 146 144 138 138 134 127 127 119 117 117 116 138 155 167 171 167 94 111 111 74 57 62 107 117 105 108 107 102 100 95 93 91 86 92 94 90 95 91 89
133 137 139 143 152 156 157 158 158 158 156 153 151 151 152 152 154 156 156 155 157 158 156 154 151 150 150 152 152 149 146 143 140 138 136 135 136 136 135 129 130 136 131 136 150 149 143 142 141 140 135 129 127 121 123 135 140 141 164 187 182 190 312 119 108 65 58 113 108 100 101 103 107 104 99 94 90 92 94 101 101 95 97 91 92
135 139 139 143 153 156 158 160 160 159 157 155 153 153 154 153 155 156 157 156 156 155 154 153 151 153 154 156 155 151 151 148 146 142 139 138 140 142 143 133 129 139 138 138 154 154 140 141 146 138 132 135 137 132 125 136 149 138 144 171 210 298 123 129 115 47 66 112 92 104 109 97 102 102 97 95 90 89 92 99 98 93 93 91 92
137 138 139 143 153 156 157 160 160 160 160 158 156 155 155 156 156 156 157 157 157 156 156 156 156 158 160 161 159 157 158 157 154 148 144 143 145 149 153 143 132 140 145 147 156 155 143 143 147 139 135 142 147 137 120 116 120 103 75 58 353 193 143 129 51 297 139 102 102 124 118 100 101 98 99 99 97 98 98 101 98 95 94 94 94
137 137 139 144 153 156 156 159 160 162 163 161 159 158 158 159 158 157 157 158 159 159 159 160 161 163 165 164 163 165 165 165 162 154 150 149 150 157 163 155 143 141 147 155 157 155 155 158 160 153 143 142 144 128 109 96 84 60 47 51 68 132 124 80 25 232 148 110 121 131 104 97 99 95 103 103 105 109 106 106 101 100 97 95 95
134 135 140 142 151 156 158 159 159 162 165 164 162 161 162 161 160 159 159 160 162 163 163 163 164 166 166 165 165 169 171 171 169 162 157 155 152 158 167 163 155 145 146 153 156 159 165 168 166 158 147 141 140 126 114 91 61 43 48 50 98 131 124 71 36 101 134 119 122 125 107 104 106 108 117 113 113 114 110 110 104 103 100 96 95
130 133 136 140 149 157 160 160 161 162 164 166 165 167 167 164 163 164 165 165 166 167 167 165 166 167 166 167 167 171 176 179 179 171 166 162 153 158 165 165 162 154 151 151 155 161 164 160 155 158 154 150 144 133 122 83 47 37 49 60 115 140 150 217 323 110 125 126 126 129 113 112 123 123 128 124 118 117 114 114 108 106 103 99 97
128 130 131 137 148 156 160 161 166 165 165 167 168 171 171 169 168 169 170 169 169 170 170 167 165 166 167 170 170 172 177 183 185 178 174 170 161 164 168 169 167 160 157 157 162 167 164 158 160 168 164 155 149 143 135 85 50 41 52 73 124 146 152 153 317 144 138 126 133 139 122 119 131 126 131 130 124 123 120 117 112 110 106 103 99
129 131 132 136 144 153 160 163 168 168 167 169 170 172 173 174 174 174 175 172 171 172 173 170 165 165 167 169 169 171 177 181 184 181 177 174 171 173 173 173 172 168 165 165 171 173 169 166 168 173 164 157 158 158 147 98 61 53 63 79 113 132 129 92 15 160 136 126 131 133 133 124 122 130 134 129 127 126 122 119 115 112 110 106 102
130 133 134 136 140 149 158 162 163 165 167 171 175 177 177 177 178 177 178 178 174 175 176 171 166 165 166 166 166 167 169 173 179 181 178 174 175 179 180 178 176 175 173 171 174 177 178 172 169 169 161 163 170 160 138 107 73 69 74 88 111 129 119 82 54 130 115 135 126 121 139 127 123 135 134 129 129 127 124 122 119 115 112 109 106
131 134 136 136 139 146 152 157 159 162 167 172 178 180 181 180 181 181 181 181 178 179 176 171 168 167 169 168 165 163 161 165 172 176 173 173 174 179 187 184 183 184 180 174 176 187 186 176 170 168 167 173 177 162 148 127 94 85 83 91 107 131 117 75 62 138 117 136 112 121 147 132 126 138 138 134 131 130 130 126 124 120 115 112 108
131 136 139 137 140 144 145 151 155 159 168 177 180 179 184 184 183 185 183 183 182 180 176 174 172 171 175 173 170 163 156 161 167 170 171 174 171 174 187 185 184 186 188 181 177 191 191 183 177 174 178 185 191 188 186 176 120 98 97 98 106 132 116 33 16 138 120 123 118 130 171 147 137 142 143 137 133 134 134 131 127 125 122 117 110
136 140 143 142 144 146 145 150 152 156 163 174 179 180 187 187 185 188 186 185 185 182 179 178 175 180 184 177 171 165 161 170 172 171 171 173 172 176 180 176 179 184 194 193 183 190 191 192 190 190 192 199 212 216 218 217 191 113 108 112 127 163 204 307 153 154 136 121 132 149 251 159 146 149 150 141 139 138 133 131 132 131 128 124 115
141 144 149 146 148 152 152 151 150 152 153 159 172 181 189 187 185 188 190 190 189 185 182 184 182 184 189 179 172 176 177 184 184 180 178 179 182 183 177 172 176 187 202 204 196 194 192 195 200 203 205 210 221 226 229 229 224 184 135 131 159 201 214 202 181 182 158 121 136 259 268 156 145 152 153 146 146 140 137 134 137 139 138 137 125
144 147 151 148 148 154 153 151 150 151 153 156 166 176 182 181 182 188 192 196 198 193 185 190 193 188 188 185 186 189 188 192 187 186 189 183 184 184 182 181 179 191 205 205 206 202 196 198 203 206 206 208 215 220 216 207 216 217 173 156 183 210 201 199 196 188 163 130 139 323 179 150 141 155 157 156 161 148 148 146 146 148 146 149 140
145 146 147 148 149 152 151 150 150 152 155 154 161 169 174 178 183 188 193 201 203 199 193 196 201 196 188 189 200 200 193 197 188 190 197 177 179 187 189 193 188 198 204 198 206 207 203 200 206 207 200 200 210 222 217 195 195 196 189 187 198 203 195 200 198 199 164 138 138 7 138 146 140 156 162 165 170 158 161 160 155 157 157 158 154
146 147 145 151 151 152 151 150 152 157 161 155 163 166 168 177 179 184 193 200 201 197 197 197 200 203 198 193 208 210 194 205 193 191 199 173 178 192 192 198 192 201 211 203 202 202 200 194 201 204 197 201 208 220 228 209 197 199 198 194 200 200 198 201 195 202 163 140 154 352 143 150 143 154 166 168 167 164 170 165 161 166 167 166 166
149 150 149 155 155 156 153 153 157 163 169 168 175 174 178 182 176 182 190 194 203 207 203 201 204 208 207 201 210 209 193 207 200 190 197 180 192 205 196 194 186 198 216 213 205 198 195 189 195 199 197 204 206 203 212 216 212 218 212 197 203 204 198 194 186 192 169 150 184 219 151 153 149 153 169 171 164 169 172 167 170 174 171 169 172
150 150 150 155 159 160 154 160 163 163 173 174 173 178 190 185 178 193 191 187 201 212 210 206 207 204 205 206 208 205 195 201 199 190 193 182 196 214 204 189 180 192 202 203 206 200 194 194 197 199 202 207 205 198 198 205 211 222 221 206 208 213 205 195 185 189 176 167 188 216 153 155 156 154 166 181 170 169 174 173 174 177 176 174 175
147 149 151 156 163 163 158 167 162 157 179 178 168 173 182 175 172 188 190 189 195 202 206 204 200 194 204 211 207 202 199 201 195 187 188 173 171 214 235 198 180 192 184 192 207 198 194 201 204 205 212 215 209 205 202 202 206 218 224 215 213 215 216 204 191 188 181 176 188 219 160 154 162 157 164 191 185 167 173 179 180 184 184 178 176
148 149 153 158 160 157 158 159 151 157 176 188 177 173 176 170 169 181 187 192 197 200 204 203 195 190 200 207 200 200 201 196 187 183 180 163 139 145 283 215 182 206 193 196 209 198 197 199 207 210 213 220 211 206 210 206 202 209 217 223 224 220 216 209 202 196 192 188 187 194 171 151 165 166 170 187 194 180 174 178 184 193 187 174 174
151 148 153 154 149 152 155 151 148 157 162 166 186 165 177 181 174 182 186 187 197 204 206 209 197 189 192 192 193 197 194 183 178 182 161 137 128 137 282 230 187 194 200 194 207 213 207 198 209 207 200 221 215 205 212 211 208 211 211 220 226 227 222 210 211 207 200 192 184 189 192 173 169 174 178 181 189 192 183 178 186 197 184 177 184
149 148 151 146 145 152 149 141 137 132 152 163 155 132 200 218 193 182 188 182 188 200 209 212 195 183 184 184 189 193 200 187 155 162 177 156 170 185 275 256 214 207 217 208 213 215 212 215 220 219 203 209 215 207 211 213 214 218 217 219 222 228 230 218 217 216 209 196 188 199 215 204 182 178 182 180 185 190 190 184 184 191 183 183 198
148 148 144 140 146 143 131 126 123 123 131 131 126 169 245 241 219 185 191 177 175 201 214 214 191 169 168 176 186 192 218 204 146 163 224 226 189 200 254 264 237 223 223 215 216 204 224 239 218 227 217 195 205 208 211 215 217 222 223 223 220 223 230 226 222 219 218 208 197 206 214 212 203 191 185 183 186 187 189 188 186 191 190 187 197
147 145 138 139 141 124 119 116 115 127 112 54 85 109 319 270 229 194 176 161 184 217 217 206 186 168 160 167 175 187 226 215 158 182 245 247 193 225 245 249 238 225 215 208 208 203 221 233 189 209 206 191 203 206 207 212 215 228 237 238 231 227 230 229 225 221 223 221 211 209 207 208 210 207 199 191 190 189 189 189 188 193 197 197 195
145 144 141 141 137 122 123 118 115 129 121 85 69 65 54 20 227 186 160 156 186 218 213 179 169 182 176 165 155 160 203 206 174 203 229 237 221 245 242 233 234 225 211 203 202 204 209 207 193 195 195 194 198 196 199 203 205 222 241 247 248 246 244 240 237 228 223 226 226 219 210 206 204 208 209 204 199 192 190 190 189 192 197 204 203
146 146 146 143 137 128 132 127 122 130 122 111 97 83 83 59 35 109 119 147 159 192 207 190 185 197 182 162 146 129 148 151 164 203 202 218 235 243 239 232 232 217 206 203 199 204 210 210 199 187 191 197 193 187 189 201 213 222 235 253 267 263 253 248 250 241 229 227 232 232 227 222 210 204 205 209 211 203 196 194 193 193 195 201 203
148 148 147 145 141 135 137 138 134 132 127 123 114 104 97 86 74 84 94 143 149 116 127 164 182 201 184 138 135 126 135 154 170 196 206 227 236 237 237 233 219 202 202 203 201 205 209 215 209 192 194 200 192 178 177 208 234 243 257 271 278 274 264 256 254 248 237 230 230 230 230 231 224 213 208 210 217 215 208 202 201 200 200 205 204
151 150 149 148 144 141 143 144 143 140 135 129 125 122 112 103 101 102 96 127 152 142 110 97 106 154 134 107 120 131 140 155 180 197 210 224 228 229 234 230 212 200 202 205 204 208 210 215 218 210 207 215 206 182 178 201 220 238 254 268 281 287 283 269 258 251 242 234 232 230 226 226 226 222 216 216 218 217 214 209 209 209 207 212 213
154 153 152 151 146 144 146 147 147 145 141 138 134 130 122 113 99 97 87 93 117 119 128 120 77 76 89 99 106 116 133 155 175 189 206 220 224 226 232 228 217 208 209 210 209 210 213 213 217 219 217 222 214 188 175 185 195 232 258 277 288 294 290 273 261 260 251 237 231 232 229 221 221 221 217 220 221 216 214 213 213 217 217 218 220
155 155 154 153 149 145 148 149 150 148 145 145 141 136 130 125 113 108 103 96 101 88 90 111 96 76 76 88 98 104 119 150 173 180 194 217 218 220 230 227 220 218 216 218 218 216 214 215 220 224 223 233 232 192 154 168 190 228 255 280 287 290 288 275 262 258 256 248 237 233 235 225 219 223 222 224 226 220 213 213 213 216 221 222 223
157 157 156 158 152 149 152 151 153 152 151 155 152 152 148 138 134 125 117 101 92 83 73 84 100 91 75 81 89 95 109 123 173 186 194 222 224 217 223 226 225 225 220 219 224 225 220 218 221 226 228 239 248 231 165 186 208 246 263 277 287 290 278 273 275 265 256 255 248 240 237 233 226 226 229 228 230 230 219 216 216 213 216 224 225
161 161 161 162 158 156 156 153 156 156 157 166 163 161 153 142 143 133 124 116 108 108 92 77 85 88 74 75 74 74 91 92 129 179 204 227 233 223 215 222 227 226 225 225 228 230 227 220 219 227 231 236 244 249 223 206 209 264 283 278 282 296 275 259 268 275 268 258 263 259 239 230 234 231 233 233 230 232 228 223 223 217 217 226 227
166 166 167 166 162 162 160 155 157 159 163 169 161 157 145 140 143 134 129 122 111 112 108 91 88 89 71 64 63 61 66 61 61 73 208 228 230 228 220 227 232 225 226 232 232 232 231 228 228 233 237 239 242 245 231 208 178 202 289 287 278 294 288 266 260 270 279 270 273 269 247 231 237 235 235 236 233 232 231 228 228 229 229 229 225
171 171 171 170 166 166 165 160 159 159 162 161 158 155 138 129 128 124 122 112 93 86 95 98 91 86 74 68 66 62 65 67 72 90 118 223 248 229 224 237 243 236 226 228 232 229 227 227 227 231 238 239 236 236 233 223 178 162 226 278 299 313 292 278 267 259 266 274 279 273 262 250 248 246 240 237 237 234 232 230 228 229 231 233 229
177 178 177 176 173 172 170 164 162 159 158 157 157 149 134 125 118 113 108 105 104 98 101 102 93 87 81 75 74 70 66 65 60 68 95 82 44 57 231 259 257 252 236 235 242 233 224 217 216 228 238 243 238 220 211 211 192 172 174 210 122 339 302 296 280 244 249 272 280 279 282 282 272 269 260 252 248 240 235 233 229 226 227 229 232
181 182 182 180 178 177 172 166 163 159 157 158 156 149 142 133 127 124 116 112 119 125 121 112 103 98 91 82 79 77 70 67 61 56 71 81 73 67 54 55 65 56 89 167 21 357 317 113 68 320 260 288 290 126 135 177 196 196 192 175 144 221 340 2 334 250 256 271 267 282 303 307 308 312 306 294 282 274 268 251 234 225 223 227 231
185 183 182 182 180 177 173 167 163 160 158 158 158 158 155 148 145 144 140 138 140 139 130 121 115 106 100 94 86 82 78 73 72 70 74 80 82 81 69 68 70 58 49 57 42 17 4 41 40 29 42 19 355 143 164 175 185 206 207 205 197 146 136 356 343 303 302 280 266 284 311 313 319 321 315 310 302 296 295 290 274 245 220 219 230
184 182 180 181 180 176 174 169 164 162 160 161 162 164 164 161 160 157 152 151 145 135 128 122 116 111 109 105 97 93 89 84 81 80 79 79 83 80 61 56 66 63 57 58 43 24 19 30 30 26 34 33 32 95 140 146 136 174 197 205 222 204 183 194 220 283 316 288 275 287 303 314 319 310 300 307 313 302 295 307 308 287 250 225 230
183 180 179 181 179 176 173 169 166 165 163 163 165 170 171 167 168 165 159 155 143 134 133 127 121 119 120 116 111 108 99 95 92 88 84 80 80 76 63 57 63 67 71 66 49 37 35 35 33 28 30 34 33 55 91 102 104 96 97 142 195 204 199 205 216 241 265 266 281 287 295 316 319 309 301 304 313 304 299 313 310 297 294 283 259
186 183 181 179 177 174 172 170 169 167 165 165 168 175 176 171 174 171 163 156 146 143 142 135 131 129 128 124 120 114 106 103 100 96 93 89 84 80 74 66 59 60 64 65 57 49 44 39 41 40 39 41 36 37 50 57 67 73 70 88 137 183 190 197 226 241 252 259 265 257 271 308 313 308 306 306 303 298 302 311 307 296 293 290 283
191 186 182 177 174 172 169 170 171 168 168 168 169 177 179 175 178 176 167 158 153 155 149 142 142 139 137 134 130 123 117 114 110 105 100 97 93 87 83 76 67 65 67 71 69 64 59 53 52 50 47 47 45 43 42 39 43 44 32 29 34 231 188 179 235 257 279 280 275 273 278 293 297 291 297 301 293 284 287 290 290 292 285 281 284
192 186 181 176 173 171 169 171 172 170 171 170 171 178 180 180 181 178 171 162 160 161 154 151 153 149 147 145 141 134 129 125 121 118 111 106 101 95 92 88 81 77 76 76 73 71 71 66 61 58 53 51 47 47 45 40 38 39 31 24 24 17 5 355 335 323 318 306 303 303 296 297 297 293 296 296 282 277 285 279 269 277 279 274 272
Height
761 763 766 767 771 772 774 775 777 778 780 782 783 784 785 786 787 788 789 790 791 793 794 795 796 797 799 799 800 800 801 801 802 803 803 804 805 806 806 807 808 808 809 809 810 810 811 811 812 813 813 814 814 814 814 814 815 815 816 816 817 817 817 818 818 819 819 820 820 821 821 821 822 822 822 823 823 824 824 824 824 823 823 822 822
760 764 766 768 771 772 775 776 778 779 781 782 783 785 786 787 788 789 790 791 792 793 795 795 796 798 799 800 801 802 803 803 803 804 804 805 806 807 807 808 809 810 810 811 811 811 812 812 813 813 814 815 815 815 815 816 816 817 817 817 818 818 819 819 820 820 821 821 821 822 822 823 823 823 824 824 824 825 825 825 825 825 824 824 824
760 765 767 769 772 773 775 776 778 779 782 783 784 786 786 788 789 790 791 792 793 795 796 796 798 799 800 801 802 803 804 804 805 805 806 806 807 808 808 809 810 811 811 812 812 812 813 813 814 814 815 816 816 817 817 818 818 818 818 819 819 820 820 821 821 821 822 822 822 822 823 824 824 825 825 825 825 825 826 826 826 826 826 826 825
761 766 767 770 772 774 776 777 779 780 782 783 785 786 787 789 789 791 792 793 794 796 797 797 799 800 801 802 803 804 805 805 806 806 807 807 808 809 809 810 811 812 812 813 813 813 814 815 815 816 816 817 818 818 819 819 819 820 820 821 821 821 822 822 823 822 822 822 822 822 824 825 826 826 826 826 826 826 826 827 828 827 827 827 826
763 766 768 770 773 775 777 778 780 781 783 784 786 787 788 789 790 792 793 794 796 797 798 799 800 801 802 803 804 805 806 806 807 807 808 809 809 810 810 811 812 812 813 814 814 815 815 816 817 817 818 818 819 819 820 820 820 821 821 822 822 823 823 823 824 823 823 823 823 824 827 827 827 828 827 827 827 827 828 828 829 829 829 828 827
764 766 768 771 773 776 777 779 781 782 784 785 787 788 789 790 791 793 794 795 796 798 799 800 801 802 803 804 805 806 807 807 808 809 809 810 810 811 811 812 812 813 814 815 815 816 817 817 818 818 819 819 820 820 820 821 822 822 822 823 823 824 824 825 824 824 824 824 825 826 828 828 829 829 829 829 829 829 829 829 830 830 830 829 829
765 766 769 771 774 776 777 780 781 783 784 786 787 788 789 790 792 793 794 796 797 799 800 801 802 803 804 805 806 807 808 808 809 809 810 811 811 812 812 813 813 814 815 816 817 817 818 818 819 820 820 821 821 821 821 822 822 823 823 823 824 825 825 826 825 825 824 824 826 827 829 829 830 830 830 830 830 830 830 831 831 831 831 831 830
765 767 770 772 774 776 778 780 782 784 785 787 787 789 790 791 793 794 795 796 798 799 801 802 803 804 805 806 807 808 808 809 810 810 811 812 812 813 813 814 814 815 816 817 818 818 819 819 820 820 821 821 822 822 822 823 823 823 824 824 825 825 826 827 826 826 825 825 827 829 829 830 831 831 832 831 831 831 831 831 832 832 832 832 831
766 768 770 773 774 776 779 780 783 784 786 787 788 790 791 792 793 795 796 797 799 800 802 803 804 805 806 807 808 809 809 810 810 811 812 813 814 814 814 815 815 816 817 818 818 819 819 820 821 821 822 822 823 823 823 823 824 824 825 825 825 826 827 827 827 826 826 827 829 829 830 831 831 832 832 832 832 832 832 832 832 833 832 833 832
767 768 771 773 775 777 779 781 784 785 787 788 789 791 791 793 794 796 797 798 800 801 803 804 805 806 807 808 809 810 810 811 811 812 813 814 814 815 815 815 816 817 817 818 819 820 820 821 822 822 822 823 823 824 824 824 824 825 825 826 826 827 827 828 827 826 827 829 830 830 830 831 831 832 833 833 833 833 833 833 833 833 833 833 833
767 769 772 774 776 778 780 782 784 786 788 789 790 791 793 794 795 797 798 799 801 802 804 805 806 807 808 809 809 811 811 812 812 813 814 815 815 815 816 816 817 817 818 819 819 820 821 822 822 822 823 823 824 824 825 825 825 825 826 826 827 828 828 828 827 827 829 830 830 831 832 831 831 833 834 834 834 834 834 834 834 834 834 834 834
768 770 772 775 777 779 781 783 785 787 788 790 791 792 794 795 796 798 799 800 802 803 804 806 807 808 809 810 811 811 812 813 813 814 815 815 816 816 816 817 818 818 819 819 820 821 822 822 823 823 823 823 824 824 825 825 826 826 826 827 827 828 828 828 827 829 831 830 832 832 832 831 831 833 835 835 835 835 834 835 835 835 835 834 835
769 771 773 775 777 780 782 784 786 788 789 791 792 793 795 796 798 799 800 801 802 804 805 806 807 808 809 810 811 812 813 814 814 815 815 816 816 816 817 818 818 819 819 820 820 821 822 823 823 823 824 824 824 825 826 826 827 827 827 827 828 828 828 828 828 829 831 831 832 833 832 831 832 834 835 835 835 835 835 835 836 835 836 835 835
770 772 774 776 779 782 783 785 787 788 790 792 793 795 796 797 799 800 801 802 803 804 805 807 808 809 810 811 812 813 814 814 815 816 816 816 816 817 818 818 819 819 820 820 821 821 822 823 823 824 824 825 825 825 826 827 827 827 827 828 828 828 828 828 829 831 831 832 833 833 833 833 834 835 836 836 835 836 836 836 836 836 836 836 836
770 772 775 777 779 782 783 786 787 789 791 792 795 796 797 799 800 801 803 803 804 805 806 807 808 810 810 811 812 813 814 815 816 816 817 817 817 818 818 819 819 820 820 821 822 822 823 823 824 824 824 825 825 826 826 827 828 828 828 828 828 828 828 827 829 832 832 833 833 833 833 834 834 836 836 836 836 836 836 836 836 837 837 837 837
771 772 775 777 779 782 784 786 787 789 791 793 795 796 798 799 801 802 803 804 805 806 807 808 808 810 811 812 813 814 815 815 816 816 817 817 818 818 818 819 819 820 821 821 822 823 823 824 824 825 825 826 826 826 827 828 828 828 828 828 829 828 829 828 829 831 832 833 833 833 833 834 835 836 837 837 836 836 836 836 837 837 837 838 837
772 774 775 777 780 782 784 786 788 790 792 794 796 797 799 800 801 802 804 805 806 807 808 809 810 811 812 813 813 814 815 815 816 816 817 818 818 819 819 819 820 820 821 822 822 823 824 824 825 825 825 826 827 827 827 828 828 829 829 829 829 829 829 828 828 831 832 832 833 834 833 833 835 836 837 837 837 837 837 837 837 838 838 838 838
772 775 776 778 780 783 784 786 788 791 792 794 796 797 798 800 801 802 804 805 806 808 809 811 811 812 812 813 814 814 815 815 816 816 817 818 818 819 819 820 820 821 821 822 822 823 824 824 825 825 826 827 827 828 828 828 828 829 829 830 830 829 829 829 829 831 832 832 833 833 832 833 836 837 837 837 837 837 837 837 837 838 838 839 838
773 775 777 780 781 783 785 787 789 791 793 794 795 797 798 800 801 802 803 805 806 808 809 811 811 812 812 813 814 814 815 815 815 816 817 818 818 819 819 820 820 821 821 822 822 823 823 824 824 825 826 827 828 828 828 828 828 829 830 830 831 830 830 829 829 832 832 833 833 832 833 834 836 838 838 837 838 838 838 838 838 838 839 839 839
774 775 778 780 782 784 785 788 789 791 793 794 795 797 799 800 801 802 803 805 806 807 809 810 810 811 812 812 813 814 815 816 816 816 817 818 818 819 819 820 821 821 822 822 822 823 823 824 824 825 826 827 828 828 828 828 829 829 830 830 831 831 830 830 830 832 832 833 833 832 834 834 836 838 838 838 838 838 838 838 838 839 839 840 840
775 776 778 780 782 785 786 788 789 791 793 794 797 797 799 801 801 802 803 805 806 808 808 809 809 810 811 812 813 815 816 816 816 816 817 818 819 820 820 820 821 821 822 821 822 822 823 824 824 825 826 827 828 828 828 829 829 829 830 830 831 831 831 831 832 832 832 833 833 833 834 834 836 838 838 838 838 838 838 838 839 839 840 840 840
775 776 778 779 782 784 786 787 789 791 793 795 798 798 800 801 802 803 804 805 806 807 808 808 809 809 811 812 814 814 815 815 816 817 816 818 818 819 820 820 821 821 821 821 821 822 823 824 824 825 826 827 828 828 829 828 829 829 829 830 830 831 832 832 832 832 832 833 833 833 834 835 837 838 838 838 838 838 838 838 839 839 840 840 840
775 776 777 779 781 783 785 787 789 792 794 796 798 799 800 801 802 803 803 804 805 806 807 808 808 810 812 812 813 813 814 815 816 817 816 817 818 819 819 820 821 821 820 821 821 822 823 823 824 825 826 827 827 828 828 828 828 828 829 829 830 831 832 832 832 832 832 832 832 833 834 835 837 838 838 838 838 838 838 838 838 839 839 840 840
775 776 777 779 781 782 784 786 789 791 793 795 797 798 800 800 801 802 802 803 803 805 806 807 808 810 811 812 812 812 813 814 815 816 816 816 817 818 819 820 820 820 821 821 822 822 822 823 824 825 825 826 827 827 827 827 828 828 828 829 830 831 831 832 832 832 832 831 832 833 834 835 836 838 838 838 838 837 837 837 838 839 839 840 840
775 776 778 780 781 782 784 786 788 790 792 793 795 797 798 799 800 801 801 800 801 803 805 806 807 808 810 812 812 811 812 813 814 815 816 816 816 817 818 819 819 820 821 821 822 822 822 823 823 824 825 826 826 827 827 826 827 828 828 829 830 831 831 832 831 832 832 831 832 833 834 835 836 837 838 838 838 838 837 837 837 838 839 839 840
774 776 777 779 781 782 783 786 788 790 792 793 794 795 795 796 797 798 799 799 799 801 803 805 806 808 810 812 811 811 812 814 814 814 815 815 816 817 817 818 818 819 820 821 821 822 822 822 823 823 824 825 826 826 827 827 828 828 828 829 830 830 831 831 831 832 832 831 832 833 834 835 836 837 838 838 838 838 838 837 837 838 838 839 840
774 775 777 779 780 781 783 785 786 788 791 792 794 795 795 796 796 796 799 800 800 801 803 805 807 808 810 812 811 811 812 813 813 813 814 814 815 816 816 816 816 818 818 819 820 821 821 822 822 822 823 824 825 826 827 827 828 828 828 828 829 830 830 831 831 832 832 832 832 833 833 835 836 837 838 838 838 838 838 838 838 838 838 839 840
774 775 777 778 780 781 782 784 785 787 789 790 792 795 796 798 798 798 799 801 802 803 804 805 807 807 809 811 810 810 811 811 811 811 812 813 814 814 814 814 815 817 817 818 819 820 821 821 822 822 823 823 824 825 826 827 827 828 828 828 829 829 830 830 831 831 832 832 832 833 833 834 835 836 838 838 838 838 838 838 838 838 838 838 839
773 775 776 778 779 780 782 783 785 787 788 789 790 792 794 796 798 799 799 800 802 802 803 804 805 806 808 809 808 808 809 810 809 810 810 811 812 812 813 814 815 816 817 817 818 819 820 820 821 822 822 823 823 825 826 827 827 828 828 828 829 829 829 830 831 831 832 833 833 833 833 834 835 836 837 838 838 838 838 838 838 838 838 838 839
774 775 776 777 779 781 782 784 786 787 788 789 790 791 793 794 796 797 798 799 800 800 801 802 804 806 806 806 806 807 807 808 809 809 810 810 810 811 812 812 814 815 816 817 817 818 819 820 820 820 821 822 822 823 824 825 827 827 828 828 828 829 829 829 830 831 831 833 833 833 833 833 834 835 836 837 838 838 838 838 838 838 838 839 839
774 775 776 778 780 781 782 784 786 787 788 789 790 791 792 793 794 796 796 797 798 799 799 800 802 803 804 805 805 806 806 806 807 808 810 810 811 811 812 812 813 814 815 816 817 818 818 819 819 819 820 821 822 822 823 824 825 827 827 827 828 828 828 829 830 830 831 832 832 832 833 833 834 835 836 837 837 838 838 838 838 838 838 839 839
773 775 776 778 780 781 783 785 787 788 789 789 790 792 792 793 793 794 796 796 797 798 798 798 799 801 803 803 804 805 805 806 807 808 809 810 811 812 812 812 813 814 815 816 817 818 818 818 818 819 819 820 821 821 822 824 825 826 826 827 827 828 828 828 829 830 830 831 832 832 832 833 833 834 835 836 836 837 837 838 838 838 839 839 839
773 775 777 779 781 782 784 786 788 789 790 791 791 792 793 793 794 794 795 796 797 797 797 797 798 801 802 803 803 805 805 805 806 807 810 811 811 812 812 812 813 813 814 815 817 818 818 818 819 819 819 820 821 821 822 823 824 825 825 826 827 827 827 828 828 829 830 830 831 832 831 832 833 834 835 835 836 836 836 837 837 838 838 839 839
773 776 777 780 782 783 786 787 789 790 791 792 792 793 794 794 794 795 796 797 797 798 797 798 799 801 803 803 803 804 805 805 806 808 809 810 811 812 812 812 812 812 814 815 816 817 818 818 819 819 819 820 820 821 822 822 823 824 825 825 826 827 827 827 827 828 829 830 830 831 831 831 832 833 834 835 835 835 836 836 836 837 838 838 839
773 776 778 780 782 784 787 788 790 791 792 793 793 794 795 795 795 796 797 798 798 798 798 799 800 801 802 803 803 804 805 806 807 808 809 810 811 812 812 812 812 812 813 814 815 816 817 818 818 819 819 820 820 821 822 822 822 823 824 825 826 827 827 827 827 827 828 829 830 830 831 831 831 832 833 834 834 835 835 835 836 836 837 837 838
773 776 778 780 783 784 787 789 790 792 792 794 794 795 795 796 797 797 798 799 799 799 799 800 801 801 802 802 804 804 805 806 807 808 809 810 811 811 812 812 812 812 813 813 814 815 816 816 817 818 818 819 821 822 822 822 822 823 824 825 826 827 828 827 827 827 828 828 829 829 830 830 831 831 832 833 833 833 834 834 835 835 836 836 837
774 776 778 780 782 785 787 789 790 792 793 794 795 795 796 797 797 798 799 799 800 800 801 802 802 801 802 803 804 804 805 807 807 808 809 810 810 811 811 811 812 812 813 813 814 814 815 815 816 817 818 820 821 822 821 821 822 823 823 824 826 827 827 828 828 828 827 827 828 828 828 829 830 830 831 832 832 832 833 833 834 834 835 835 836
774 776 778 780 782 785 787 789 790 792 793 794 795 796 797 797 798 799 799 800 801 801 801 802 803 803 803 804 804 805 806 806 807 808 809 809 810 810 811 811 811 812 813 813 813 814 814 815 815 816 818 820 823 822 820 821 822 823 824 824 826 826 827 827 827 827 827 827 827 827 827 827 828 829 829 830 831 830 830 831 833 833 834 834 835
774 776 778 780 782 785 787 789 791 792 793 794 795 797 797 798 799 799 800 800 801 801 802 803 804 805 805 805 806 806 807 807 807 807 808 809 809 810 810 810 811 812 812 813 813 814 813 814 814 815 816 818 821 821 819 821 822 823 824 825 825 826 826 826 826 826 826 826 826 826 826 826 827 827 828 829 830 830 829 830 831 831 832 832 833
773 776 778 780 782 785 787 789 791 792 794 795 795 797 797 798 799 799 800 801 802 802 803 803 804 805 806 807 807 807 808 808 808 808 809 809 809 810 810 810 811 811 812 812 812 813 813 813 814 815 815 816 818 819 819 820 821 823 824 824 825 825 825 825 825 825 825 825 825 826 825 825 826 826 827 828 828 829 829 829 829 829 830 830 831
773 775 777 780 782 784 786 788 790 792 794 795 796 796 797 798 799 800 800 802 803 803 804 805 805 806 807 807 807 808 808 808 809 809 809 809 809 809 810 810 810 810 810 810 810 812 813 813 813 814 814 815 816 818 818 819 820 822 823 824 825 824 824 825 824 824 824 824 825 825 825 825 825 825 826 827 827 827 828 828 828 828 828 828 828
772 774 776 779 781 784 786 788 790 792 794 795 796 796 797 798 799 799 800 801 802 803 804 806 806 807 807 807 807 808 808 808 809 809 809 809 810 810 810 810 809 809 810 810 811 812 813 814 814 813 813 814 815 818 819 818 820 821 823 824 825 824 823 823 823 823 824 824 825 825 824 823 823 824 824 825 825 826 826 826 826 826 827 826 826
770 773 775 778 781 783 786 788 789 791 793 795 796 797 797 798 799 800 801 802 803 804 805 806 807 807 808 808 808 808 808 809 809 809 810 810 810 810 810 810 810 810 810 811 811 812 813 814 814 813 813 814 816 818 819 819 820 821 823 825 825 824 823 822 822 823 824 824 825 826 824 823 822 822 823 823 823 824 824 824 824 824 825 825 825
769 771 774 777 779 782 784 787 789 791 793 795 796 797 798 799 800 801 802 803 804 806 807 808 808 808 809 809 809 809 809 810 810 810 810 810 810 810 810 810 810 810 810 811 810 811 812 812 813 813 813 814 816 817 819 819 820 821 823 825 825 825 826 824 823 824 825 825 826 826 824 822 822 821 822 822 822 822 822 822 822 822 823 823 824
766 769 772 775 778 781 783 786 788 790 792 794 796 797 799 800 801 802 803 804 805 806 807 808 809 809 810 810 810 811 811 811 811 811 811 811 811 811 811 811 811 811 811 811 811 811 811 811 812 812 812 813 814 817 819 820 820 821 822 823 824 826 827 826 826 825 825 825 826 825 823 822 822 821 821 821 820 820 821 820 820 820 820 821 822
764 767 770 773 776 779 782 785 786 789 791 793 796 797 799 800 801 802 803 804 805 806 807 808 809 810 811 811 812 812 812 812 812 812 812 812 812 812 812 812 812 812 812 811 811 811 811 811 812 812 812 813 814 817 819 819 819 820 821 822 823 824 825 826 828 827 825 825 824 824 823 823 823 821 820 820 820 820 819 818 819 819 818 818 820
762 766 769 772 775 778 781 783 785 787 790 792 794 797 798 800 801 802 803 803 804 806 807 809 809 810 811 812 813 813 813 813 813 813 813 813 814 813 813 813 813 813 813 813 813 813 813 813 813 813 814 814 815 816 819 819 819 820 820 821 822 822 823 824 827 828 828 826 823 823 823 822 822 821 820 820 820 820 819 819 821 820 818 817 818
761 764 767 770 773 776 779 782 784 786 788 790 793 796 797 799 800 801 802 803 804 806 808 809 810 811 812 812 813 814 814 814 814 814 815 815 815 815 815 815 815 815 815 815 815 815 815 815 815 815 816 816 817 817 818 819 819 820 820 821 821 822 822 823 825 828 830 828 824 822 822 821 821 820 820 820 819 819 819 820 821 820 818 817 817
759 761 764 767 770 774 778 780 783 785 787 789 792 795 797 798 800 801 801 803 804 806 808 809 810 811 812 813 813 814 815 815 815 816 816 816 816 817 817 816 816 816 816 816 816 817 817 817 817 817 818 818 819 818 818 819 819 820 820 820 821 821 822 823 824 825 826 826 824 822 822 821 820 820 820 819 819 818 819 819 819 819 819 818 817
757 760 762 765 768 771 775 779 782 784 786 787 790 793 796 797 799 800 801 802 804 806 807 809 810 811 812 813 814 814 815 816 816 817 817 817 818 818 818 818 818 818 818 818 818 818 818 819 819 819 820 820 820 820 820 820 820 820 821 821 821 821 821 822 823 823 823 823 822 820 820 820 819 819 818 818 818 818 818 818 818 819 819 818 817
756 758 761 763 766 768 771 776 779 782 785 786 789 792 795 796 798 799 800 802 804 805 806 808 810 811 812 813 814 814 815 816 817 817 818 818 819 819 819 819 820 819 820 819 820 820 820 820 820 821 821 821 821 822 822 822 822 822 822 822 822 822 822 822 823 823 823 822 821 820 819 818 818 817 817 817 817 817 817 817 817 818 817 816 815